Retour au catalogue

STARLINK-3359

ActifCommunicationsVLEO
NORAD 51148·PAYLOAD·🇺🇸 United States

Lancé Jan 19, 2022 depuis Cape Canaveral Space Force Station

Loading…

Prochains Passages (prochaines 24 heures)

TLE

FraisSource: CelesTrak SupGP

Époque: Sep 14, 2026, 21:35 UTC

1 51148C 22005AW  26257.89979167 -.00006176  00000+0 -30751-3 0  2573
2 51148  53.2146 174.2326 0002613  83.4618  87.6940 15.17078872    10

Suivez STARLINK-3359 en temps réel avec AllMySat

Download on the App Store